sat.trackr.live / text

‹ back to catalog

SUPERBIRD-C2

NORAD 33274 · 2008-038A

PAYLOAD ACTIVE UNKNOWN

§ Identity

Operator
Country
JPN
Launch date
2008-08-14
Launch site
FRGUI
Launch vehicle
Mass (kg)
RCS (m²)
12.62

Purposes: comms

External: N2YO · Heavens-Above · Gunter

§ Orbital elements

Epoch: 2026-09-09T04:26:08.320128Z

Period
1,436.12 min
Inclination
2.5716°
Eccentricity
0.0005716
Mean motion
1.00269941 rev/d
Perigee alt
35,763.0 km
Apogee alt
35,811.2 km
Semi-major
42,165.2 km
B*
0.0000e+0
RAAN
80.1409°
Arg perigee
68.6442°
Mean anomaly
41.9990°
Rev number
10,657

§ Raw data

SUPERBIRD-C21 33274U 08038A   26252.18481852 -.00000327  00000+0  00000+0 0  99932 33274   2.5716  80.1409 0005716  68.6442  41.9990  1.00269941106576

JSON: /api/v1/satellites/33274 · /tle

For live sub-satellite position, see the globe view (requires WebGL).

§ Visibility from observer

Set your observer location to see the next 7 days of passes ≥ 10°. The values pass through the URL so the page stays shareable.

No JS? Fill the form by hand. The geolocation button needs JavaScript.